VOLGA DEB, 44621

Orbit data source: Space-Track

VOLGA DEB, 44621 is space debris in SSO originally from a launch on Wed, 10 Jul 2019 UTC launched from the Plesetsk Missile And Space Complex (PKMTR). Debris objects in space refer to the collection of defunct objects orbiting the Earth. Examples of debris include non-operational satellites, rocket bodies, and fragments generated from explosions, collisions, or faulty payload assembly.

Loading next visibility...
VOLGA DEB details
Identifier
44621, 2019-039F
Orbit
SSO
Last TLE update19 hours ago
Origin
Flag of CISVVKO VKS (CIS)
ManufacturerTSKHM?
MissionSpacecraft
Bus & MotorNAPRAZHENIYE?, Unknown motor
Mass~47 kg wet, ~47 kg dry
Launch date (UTC)
2019-07-10 (5 years ago)
Launch vehicleUnknown
Launch site
Plesetsk Missile And Space Complex (PKMTR)
Object type
Payload
Rocket body
Debris
Shape & HBRUnknown
Radar Cross SectionSmall (<0.1 m²)

Expand to show TLE details & history

TLE from 19 hours ago
0 VOLGA DEB
1 44621U 19039F   24360.89827773  .00006700  00000-0  66120-3 0  9996
2 44621  97.6361  32.4074 0007586 232.7360 127.3169 14.92269368296039
Epoch: 2024-12-25T21:33Z
Definitive object data (Epoch: 2024-12-25T21:33:31.195Z)
Latitude0.00004°
Longitude-25.85801°
Altitude597.115 km
Speed7.559 km/s
True Right ascension02h 09m 37s
True Declination0° 00' 00"
Sunlit
Object was in full shadow at TLE epoch
Visualization TLE readout
Latitude-14.77995°
Longitude-23.06455°
Altitude599.2 km
Speed7.558 km/s
Apparent Right ascension03h 06m 45s
Apparent Declination-27° 17' 00"
Sunlit
Object is in daylight
Visualization observer readout
Local Sidereal Time16:10:27
Azimuth51.09° ENE
Elevation-71.738°
Doppler factor1
Orbital elements
Apogee altitude593.159 km
Perigee altitude582.59 km
Semi-major axis6,966.011 km
Eccentricity0.0007586
Inclination97.6361°
RAAN32.4074°
Arg. of periapsis232.736°
True anomaly127.38599°
Mean anomaly127.3169°
Eccentric anomaly127.35145°
Mean motion3.73308 °/min
BSTAR0.0006612
Orbital period96.44 mins
Loading maneuver chart data...

VOLGA DEB Visibility forecast

Observer location: undefined°, undefined

Span
Click to sort rows by Start time (UTC) header in descending order
Start Az.
Max El. time (UTC)
Max El. Az.
Max El.
End time (UTC)
End Az.
7 mins2024-12-27 02:39:13.317Z185.889° SSW2024-12-27 02:42:13.317Z263.632° W39.493°2024-12-27 02:46:13.317Z338.654° N
5 mins2024-12-27 14:23:13.317Z55.498° ENE2024-12-27 14:25:13.317Z93.075° ESE21.102°2024-12-27 14:28:13.317Z144.183° SSE
5 mins2024-12-27 15:59:13.317Z325.743° NNW2024-12-27 16:01:13.317Z279.303° WNW24.153°2024-12-27 16:04:13.317Z232.799° WSW
|